Weather reports worldwide

Advertisment
Ciudad Victoria, Mexico (76491): temperature & dewpoint: 15.05.2019 10:00:00 - 21.05.2019 10:00:00 (CDT)Ciudad Victoria, Mexico (76491): wind speed: 15.05.2019 10:00:00 - 21.05.2019 10:00:00 (CDT)Ciudad Victoria, Mexico (76491): wind direction: 15.05.2019 10:00:00 - 21.05.2019 10:00:00 (CDT)Ciudad Victoria, Mexico (76491): reduced air pressure: 15.05.2019 10:00:00 - 21.05.2019 10:00:00 (CDT)Ciudad Victoria, Mexico (76491): visibility: 15.05.2019 10:00:00 - 21.05.2019 10:00:00 (CDT)
Date & Time tt [°C] td [°C] ff [km/h] ff [kn] dd ppp [hPa] vv [km]
21.05.2019 10:00:00 29,4 25,2 11 6 N 1004,7 10
21.05.2019 09:00:00 - - - - - - -
21.05.2019 08:00:00 - - - - - - -
21.05.2019 07:00:00 - - - - - - -
21.05.2019 06:00:00 - - - - - - -
21.05.2019 05:00:00 - - - - - - -
21.05.2019 04:00:00 - - - - - - -
21.05.2019 03:00:00 - - - - - - -
21.05.2019 02:00:00 - - - - - - -
21.05.2019 01:00:00 30,6 19,7 14 8 ESE 1003,9 6
21.05.2019 00:00:00 - - - - - - -
20.05.2019 23:00:00 - - - - - - -
20.05.2019 22:00:00 32,0 22,2 22 12 SSE 1003,1 6
20.05.2019 21:00:00 - - - - - - -
20.05.2019 20:00:00 - - - - - - -
20.05.2019 19:00:00 36,2 21,9 22 12 S 1002,4 10
20.05.2019 18:00:00 - - - - - - -
20.05.2019 17:00:00 - - - - - - -
20.05.2019 16:00:00 38,0 21,7 22 12 ESE 1004,5 10
20.05.2019 15:00:00 - - - - - - -
20.05.2019 14:00:00 - - - - - - -
20.05.2019 13:00:00 35,0 23,8 29 16 SE 1008,0 10
20.05.2019 12:00:00 - - - - - - -
20.05.2019 11:00:00 - - - - - - -
20.05.2019 10:00:00 30,8 24,7 4 2 S 1009,9 10
20.05.2019 09:00:00 - - - - - - -
20.05.2019 08:00:00 - - - - - - -
20.05.2019 07:00:00 - - - - - - -
20.05.2019 06:00:00 - - - - - - -
20.05.2019 05:00:00 - - - - - - -
20.05.2019 04:00:00 - - - - - - -
20.05.2019 03:00:00 - - - - - - -
20.05.2019 02:00:00 - - - - - - -
20.05.2019 01:00:00 - - - - - - -
20.05.2019 00:00:00 - - - - - - -
19.05.2019 23:00:00 - - - - - - -
19.05.2019 22:00:00 - - - - - - -
19.05.2019 21:00:00 - - - - - - -
19.05.2019 20:00:00 - - - - - - -
19.05.2019 19:00:00 33,0 24,2 0 0 N 1006,4 10
19.05.2019 18:00:00 - - - - - - -
19.05.2019 17:00:00 - - - - - - -
19.05.2019 16:00:00 35,8 23,6 4 2 N 1007,5 10
19.05.2019 15:00:00 - - - - - - -
19.05.2019 14:00:00 - - - - - - -
19.05.2019 13:00:00 32,0 25,8 0 0 N 1009,9 10
19.05.2019 12:00:00 - - - - - - -
19.05.2019 11:00:00 - - - - - - -
19.05.2019 10:00:00 27,0 26,9 0 0 N 1009,2 10
19.05.2019 09:00:00 - - - - - - -
19.05.2019 08:00:00 - - - - - - -
19.05.2019 07:00:00 - - - - - - -
19.05.2019 06:00:00 - - - - - - -
19.05.2019 05:00:00 - - - - - - -
19.05.2019 04:00:00 - - - - - - -
19.05.2019 03:00:00 - - - - - - -
19.05.2019 02:00:00 - - - - - - -
19.05.2019 01:00:00 - - - - - - -
19.05.2019 00:00:00 - - - - - - -
18.05.2019 23:00:00 - - - - - - -
18.05.2019 22:00:00 - - - - - - -
18.05.2019 21:00:00 - - - - - - -
18.05.2019 20:00:00 - - - - - - -
18.05.2019 19:00:00 29,2 9,2 0 0 N 1001,0 10
18.05.2019 18:00:00 - - - - - - -
18.05.2019 17:00:00 - - - - - - -
18.05.2019 16:00:00 38,4 19,8 0 0 N 1003,3 10
18.05.2019 15:00:00 - - - - - - -
18.05.2019 14:00:00 - - - - - - -
18.05.2019 13:00:00 34,7 23,3 0 0 N 1005,6 10
18.05.2019 12:00:00 - - - - - - -
18.05.2019 11:00:00 - - - - - - -
18.05.2019 10:00:00 28,2 25,3 4 2 N 1007,2 10
18.05.2019 09:00:00 - - - - - - -
18.05.2019 08:00:00 - - - - - - -
18.05.2019 07:00:00 - - - - - - -
18.05.2019 06:00:00 - - - - - - -
18.05.2019 05:00:00 - - - - - - -
18.05.2019 04:00:00 - - - - - - -
18.05.2019 03:00:00 - - - - - - -
18.05.2019 02:00:00 - - - - - - -
18.05.2019 01:00:00 27,4 26,8 4 2 N 1007,3 6
18.05.2019 00:00:00 - - - - - - -
17.05.2019 23:00:00 - - - - - - -
17.05.2019 22:00:00 30,4 25,7 4 2 W 1005,8 6
17.05.2019 21:00:00 - - - - - - -
17.05.2019 20:00:00 - - - - - - -
17.05.2019 19:00:00 36,0 22,0 4 2 ESE 1004,0 10
17.05.2019 18:00:00 - - - - - - -
17.05.2019 17:00:00 - - - - - - -
17.05.2019 16:00:00 37,0 22,1 7 4 E 1005,6 10
17.05.2019 15:00:00 - - - - - - -
17.05.2019 14:00:00 - - - - - - -
17.05.2019 13:00:00 33,2 22,1 0 0 N 1008,3 10
17.05.2019 12:00:00 - - - - - - -
17.05.2019 11:00:00 - - - - - - -
17.05.2019 10:00:00 26,0 25,3 4 2 NE 1010,9 10
17.05.2019 09:00:00 - - - - - - -
17.05.2019 08:00:00 - - - - - - -
17.05.2019 07:00:00 22,6 22,5 0 0 N 1010,0 6
17.05.2019 06:00:00 - - - - - - -
17.05.2019 05:00:00 - - - - - - -
17.05.2019 04:00:00 24,0 23,9 0 0 N 1010,6 6
17.05.2019 03:00:00 - - - - - - -
17.05.2019 02:00:00 - - - - - - -
17.05.2019 01:00:00 26,4 25,1 0 0 N 1013,5 6
17.05.2019 00:00:00 - - - - - - -
16.05.2019 23:00:00 - - - - - - -
16.05.2019 22:00:00 28,6 24,9 0 0 N 1012,6 6
16.05.2019 21:00:00 - - - - - - -
16.05.2019 20:00:00 - - - - - - -
16.05.2019 19:00:00 31,4 21,4 0 0 N 1010,9 10
16.05.2019 18:00:00 - - - - - - -
16.05.2019 17:00:00 - - - - - - -
16.05.2019 16:00:00 31,4 22,1 4 2 S 1012,8 10
16.05.2019 15:00:00 - - - - - - -
16.05.2019 14:00:00 - - - - - - -
16.05.2019 13:00:00 30,0 22,5 0 0 N 1015,8 10
16.05.2019 12:00:00 - - - - - - -
16.05.2019 11:00:00 - - - - - - -
16.05.2019 10:00:00 23,8 23,7 0 0 N 1016,5 10
16.05.2019 09:00:00 - - - - - - -
16.05.2019 08:00:00 - - - - - - -
16.05.2019 07:00:00 22,6 22,5 0 0 N 1015,7 6
16.05.2019 06:00:00 - - - - - - -
16.05.2019 05:00:00 - - - - - - -
16.05.2019 04:00:00 22,8 22,7 0 0 N 1015,4 6
16.05.2019 03:00:00 - - - - - - -
16.05.2019 02:00:00 - - - - - - -
16.05.2019 01:00:00 23,8 23,7 0 0 N 1017,2 6
16.05.2019 00:00:00 - - - - - - -
15.05.2019 23:00:00 - - - - - - -
15.05.2019 22:00:00 24,0 23,9 0 0 N 1016,3 6
15.05.2019 21:00:00 - - - - - - -
15.05.2019 20:00:00 - - - - - - -
15.05.2019 19:00:00 26,4 24,9 0 0 N 1013,6 10
15.05.2019 18:00:00 - - - - - - -
15.05.2019 17:00:00 - - - - - - -
15.05.2019 16:00:00 28,1 23,5 0 0 N 1014,2 10
15.05.2019 15:00:00 - - - - - - -
15.05.2019 14:00:00 - - - - - - -
15.05.2019 13:00:00 27,8 23,6 0 0 N 1016,7 10
15.05.2019 12:00:00 - - - - - - -
15.05.2019 11:00:00 - - - - - - -
15.05.2019 10:00:00 25,2 22,3 0 0 N 1017,1 10

tt = temperature
td = dewpoint
ff = wind speed
dd = wind direction
ppp = reduced air pressure
vv = visibility

Next stations